Location: Lake Hudson State Recreational Area
(41.8372°N, 84.2445°W)
Time: 09:08:33
(UTC-04:00)

Envisat - Visible Passes

Search period start: 17 July 2018 00:00
Search period end: 27 July 2018 00:00
Orbit: 764 x 766 km, 98.2° (Epoch: 17 July)

Date Brightness Start Highest point End Pass type
(mag) Time Alt. Az. Time Alt. Az. Time Alt. Az.
18 Jul 6.0 22:26:09 10° WSW 22:27:26 11° W 22:28:43 10° WNW visible
19 Jul 5.2 21:46:10 10° SSW 21:50:18 25° W 21:54:28 10° NW visible
21 Jul 5.7 22:13:28 10° WSW 22:16:07 14° W 22:18:48 10° WNW visible
22 Jul 4.9 21:34:35 10° SSW 21:39:03 31° W 21:43:34 10° NNW visible
24 Jul 5.6 22:01:25 10° SW 22:04:51 18° W 22:08:17 10° NW visible
25 Jul 4.5 21:23:06 10° SSW 21:27:50 39° W 21:32:36 10° NNW visible
